Regional Weather Roundup
Issued by NWS

Home | Current Version | Previous Version | Text Only | Print | Product List | Glossary On
Versions: 1 2 3 4 5 6 7 8 9 10 11 12 13 14 15 16 17 18 19 20 21 22 23 24 25 26 27 28 29 30 31 32 33 34 35 36 37 38 39 40 41 42 43 44 45 46 47 48 49 50
000
ASUS43 KDTX 250601
RWRMI
MICHIGAN HOURLY REGIONAL WEATHER ROUNDUP
NATIONAL WEATHER SERVICE DETROIT/PONTIAC MI
100 AM EST SAT NOV 25 2017

NOTE: "FAIR" INDICATES FEW OR NO CLOUDS BELOW 12,000 FEET WITH NO
SIGNIFICANT WEATHER AND/OR OBSTRUCTION TO VISIBILITY.

MIZ047>049-052>055-059>063-066>070-074>076-081>083-250700-
SOUTHEAST LOWER MICHIGAN

CITY           SKY/WX    TMP DP  RH WIND       PRES   REMARKS
ADRIAN         PTCLDY    44  32  62 SW14      29.57F
6HR MIN TEMP:  44; 6HR MAX TEMP:  48;

ALMA           CLOUDY    51  36  55 W10       29.48R
ANN ARBOR      CLOUDY    46  32  58 S14       29.54S
BAD AXE        MOCLDY    50  34  53 SW18G24   29.44F
6HR MIN TEMP:  48; 6HR MAX TEMP:  51;

CARO           PTCLDY    50  35  56 SW14G20   29.45S
DETROIT CITY   CLEAR     49  31  49 SW14G22   29.54F
6HR MIN TEMP:  46; 6HR MAX TEMP:  50;

DETROIT        CLOUDY    49  31  49 SW20G28   29.56S
6HR MIN TEMP:  48; 6HR MAX TEMP:  50;

FLINT          PTCLDY    49  33  54 SW13      29.49F
6HR MIN TEMP:  49; 6HR MAX TEMP:  52;

GROSSE ILE     CLEAR     48  32  53 SW13G20   29.55F
6HR MIN TEMP:  44; 6HR MAX TEMP:  48;

HILLSDALE      PTCLDY    46  32  57 SW14G22   29.54F
HOWELL         PTCLDY    48  34  56 SW10G17   29.50F
6HR MIN TEMP:  48; 6HR MAX TEMP:  51;


CITY           SKY/WX    TMP DP  RH WIND       PRES   REMARKS
JACKSON        MOCLDY    51  33  50 SW23G31   29.52F
6HR MIN TEMP:  49; 6HR MAX TEMP:  51;

LAMBERTVILLE   CLOUDY    50  31  47 SW9G21    29.58S
6HR MIN TEMP:  50; 6HR MAX TEMP:  52;

LANSING        CLOUDY    51  36  56 SW15G24   29.50S
6HR MIN TEMP:  50; 6HR MAX TEMP:  53;

LAPEER         FAIR      49  32  52 SW14      29.48F
6HR MIN TEMP:  48; 6HR MAX TEMP:  52;

MASON          CLOUDY    52  34  50 SW10G20   29.51S
MONROE         CLEAR     50  30  47 SW15G21   29.56S
MT. CLEMENS    CLOUDY    49  33  54 SW14      29.51F
6HR MIN TEMP:  47; 6HR MAX TEMP:  50;

PONTIAC        CLOUDY    47  33  58 SW10      29.51F
6HR MIN TEMP:  47; 6HR MAX TEMP:  50;

PORT HOPE        N/A     52  34  50 SW12G24   29.41S
6HR MIN TEMP:  50; 6HR MAX TEMP:  52;

PORT HURON     PTCLDY    45  32  61 S8        29.52F
TRI CITIES     CLOUDY    52  38  58 SW15      29.47R
6HR MIN TEMP:  51; 6HR MAX TEMP:  53;

MIDLAND        CLOUDY    51  37  57 SW6       29.46R
6HR MIN TEMP:  49; 6HR MAX TEMP:  53;

TROY           PTCLDY    50  31  49 SW15G22   29.55S
SAGINAW HB     CLOUDY    50  36  57 SW14      29.46S
$$
MIZ043>046-050>051-056>058-064>065-071>073-077>080-250700-
SOUTHWEST LOWER MICHIGAN

CITY           SKY/WX    TMP DP  RH WIND       PRES   REMARKS
BATTLE CREEK   CLOUDY    50  35  56 SW13      29.54R
6HR MIN TEMP:  49; 6HR MAX TEMP:  51;

BENTON HARBOR  CLOUDY    52  39  61 W18G24    29.57R
6HR MIN TEMP:  52; 6HR MAX TEMP:  55;

BIG RAPIDS     LGT RAIN  48  44  87 W6        29.47S
6HR MIN TEMP:  48; 6HR MAX TEMP:  53;

COLDWATER      CLOUDY    50  32  50 SW13G22   29.55R
6HR MIN TEMP:  48; 6HR MAX TEMP:  51;

FREMONT        CLOUDY    48  46  93 NW8       29.50R
HOLLAND        LGT RAIN  52  43  71 W14       29.55R
6HR MIN TEMP:  52; 6HR MAX TEMP:  56; 6HR PCP: TRACE;

GRAND RAPIDS   CLOUDY    52  42  69 W14       29.50R
6HR MIN TEMP:  52; 6HR MAX TEMP:  54;

IONIA          CLOUDY    52  36  54 SW16G22   29.49R
6HR MIN TEMP:  49; 6HR MAX TEMP:  52;

KALAMAZOO      CLOUDY    50  33  52 SW10      29.54R
6HR MIN TEMP:  50; 6HR MAX TEMP:  52;

LUDINGTON      CLOUDY    47  46  93 NW8G17    29.51R
6HR MIN TEMP:  47; 6HR MAX TEMP:  53; 6HR PCP:  0.08;

MARSHALL       PTCLDY    49  33  53 SW10G21   29.53R
6HR MIN TEMP:  49; 6HR MAX TEMP:  51;

MOUNT PLEASANT CLOUDY    53  38  57 W10G16    29.46R
6HR MIN TEMP:  51; 6HR MAX TEMP:  53;

MUSKEGON       LGT RAIN  50  45  83 NW9       29.53R
6HR MIN TEMP:  50; 6HR MAX TEMP:  55; 6HR PCP: TRACE;

SOUTH HAVEN    CLOUDY    53  41  64 SW14G20   29.56R
$$
MIZ016>042-250700-
NORTHERN LOWER MICHIGAN

CITY           SKY/WX    TMP DP  RH WIND       PRES   REMARKS
ALPENA         CLOUDY    50  45  83 NW10      29.40R
6HR MIN TEMP:  50; 6HR MAX TEMP:  54; 6HR PCP: TRACE;

BEAVER ISLAND  CLOUDY    45  42  89 W13G21    29.46R
6HR MIN TEMP:  44; 6HR MAX TEMP:  49;

BELLAIRE       FLURRIES  45  45 100 NW3       29.47R
6HR MIN TEMP:  45; 6HR MAX TEMP:  58;

CADILLAC       LGT RAIN  46  46  99 W9        29.45R
CHARLEVOIX     LGT RAIN  45  45 100 NW13G18   29.49R
6HR MIN TEMP:  45; 6HR MAX TEMP:  56;

FRANKFORT      CLOUDY    47  46  97 NW8       29.51R
GAYLORD        LGT RAIN  42  40  92 VRB5      29.42R
6HR MIN TEMP:  42; 6HR MAX TEMP:  53; 6HR PCP:  0.06;

GRAYLING       LGT RAIN  46  44  91 W9        29.43R
6HR MIN TEMP:  46; 6HR MAX TEMP:  53;

HARBOR SPRINGS LGT RAIN  43  43  98 W5        29.44R
HOUGHTON LAKE  LGT RAIN  46  42  86 W8        29.44R
6HR MIN TEMP:  46; 6HR MAX TEMP:  51; 6HR PCP: TRACE;

MANISTEE       LGT RAIN  47  46  97 NW10      29.50R
OSCODA         CLOUDY    51  34  53 W15       29.40S
6HR MIN TEMP:  47; 6HR MAX TEMP:  51;

ROGERS CITY    LGT RAIN  45  42  92 W6        29.41R
TRAVERSE CITY  LGT RAIN  46  43  89 NW7       29.47R
6HR MIN TEMP:  46; 6HR MAX TEMP:  57; 6HR PCP:  0.04;

$$
MIZ007>008-015-250700-
EASTERN UPPER MICHIGAN

CITY           SKY/WX    TMP DP  RH WIND       PRES   REMARKS
KINROSS        LGT RAIN  41  40  96 NW15      29.39R FOG
6HR MIN TEMP:  41; 6HR MAX TEMP:  48;

MACKINAC ISLAN CLOUDY    43  42  96 W9        29.41R
6HR MIN TEMP:  43; 6HR MAX TEMP:  49; 6HR PCP:  0.07;

NEWBERRY       CLOUDY    41  40  97 NW13      29.43R
6HR MIN TEMP:  41; 6HR MAX TEMP:  44; 6HR PCP:  0.05;

S. S. MARIE    CLOUDY    43  39  86 NW13G22   29.38R
6HR MIN TEMP:  43; 6HR MAX TEMP:  47; 6HR PCP:  0.25;

MUNISING         N/A     43  38  82 NW14G28   29.49R
6HR MIN TEMP:  43; 6HR MAX TEMP:  45; 6HR PCP:  0.09;

$$
MIZ004>006-011>014-085-250700-
CENTRAL UPPER MICHIGAN

CITY           SKY/WX    TMP DP  RH WIND       PRES   REMARKS
MANISTIQUE     CLOUDY    41  36  81 NW15      29.48R
6HR MIN TEMP:  41; 6HR MAX TEMP:  44; 6HR PCP:  0.13;

ESCANABA       CLOUDY    42  34  73 NW12      29.52R
6HR MIN TEMP:  42; 6HR MAX TEMP:  49; 6HR PCP:  0.07;

MENOMINEE      CLOUDY    45  36  70 NW13G22   29.56R
6HR MIN TEMP:  45; 6HR MAX TEMP:  55; 6HR PCP:  0.08;

SAWYER-GWINN   MOCLDY    38  30  72 NW18G26   29.51R WCI  28
6HR MIN TEMP:  38; 6HR MAX TEMP:  46;

$$
MIZ001>003-009>011-084-250700-
WESTERN UPPER MICHIGAN

CITY           SKY/WX    TMP DP  RH WIND       PRES   REMARKS
IRON MOUNTAIN  CLOUDY    39  28  64 NW12G24   29.53R WCI  32
6HR MIN TEMP:  39; 6HR MAX TEMP:  53; 6HR PCP: TRACE;

HOUGHTON       CLOUDY    39  29  67 W18G30    29.48R WCI  30
6HR MIN TEMP:  38; 6HR MAX TEMP:  41; 6HR PCP:  0.01;

COPPER HARBOR    N/A     41  31  67 NW13G24   29.47R
6HR MIN TEMP:  41; 6HR MAX TEMP:  43;

IRONWOOD       CLOUDY    35  33  92 W12       29.58R WCI  27
6HR MIN TEMP:  35; 6HR MAX TEMP:  40; 6HR PCP:  0.01;

$$

ABBREVIATIONS USED IN REMARKS
   TC - TEMPERATURE IN CELSIUS
  WCI - WIND CHILL INDEX
   HX - HEAT INDEX
  VSB - VISIBILITY




USA.gov is the U.S. government's official web portal to all federal, state and local government web resources and services.